Hourly Data Report for September 30, 2017

All times are specified in Local Standard Time (LST). Add 1 hour to adjust for Daylight Saving Time where and when it is observed.

IQALUIT CLIMATE
NUNAVUT

63°44'50.000" N
68°32'40.000" W
33.50 m
2402592
71321
XFB

Download Data

Hourly Data (September 2017)
Hourly Data Report for September 30, 2017
Temp Definition
°C
Dew Point Temp Definition
°C
Rel Hum Definition
%
Wind Dir Definition
10's deg

Wind Spd Definition
km/h
Visibility Definition
km
Stn Press Definition
kPa
Hmdx Definition


Wind Chill Definition


Weather Definition


TIME
00:00 -3.1 -4.7 89 22 6   100.47   -6 LegendNANA
01:00 -3.3 -4.5 91 17 8   100.34   -7 LegendNANA
02:00 -3.2 -4.2 92 12 16   100.17   -9 LegendNANA
03:00 -2.8 -3.9 93 13 21   100.02   -9 LegendNANA
04:00 -3.1 -4.7 89 12 26   99.87   -10 LegendNANA
05:00 -3.1 -4.8 88 12 26   99.71   -10 LegendNANA
06:00 -2.8 -4.4 89 12 26   99.52   -10 LegendNANA
07:00 -2.6 -4.2 89 12 26   99.32   -9 LegendNANA
08:00 -2.5 -4.4 87 12 35   99.12   -10 LegendNANA
09:00 -2.2 -4.6 84 12 29   98.94   -9 LegendNANA
10:00 -1.5 -4.0 83 12 34   98.71   -9 LegendNANA
11:00 -1.7 -2.7 93 11 29   98.49   -9 LegendNANA
12:00 -1.8 -2.9 92 10 33   98.31   -9 LegendNANA
13:00 -1.9 -2.7 94 10 46   98.15   -10 LegendNANA
14:00 -1.6 -2.5 93 10 46   98.02   -10 LegendNANA
15:00 -1.1 -2.1 93 10 47   97.90   -9 LegendNANA
16:00 -0.8 -2.1 91 9 50   97.82   -9 LegendNANA
17:00 -1.0 -2.2 91 9 56   97.86   -10 LegendNANA
18:00 -0.9 -2.9 86 9 41   97.98   -9 LegendNANA
19:00 -1.4 -2.9 90 8 52   98.10   -10 LegendNANA
20:00 -1.0 -3.5 83 7 63   98.15   -10 LegendNANA
21:00 -1.1 -4.2 80 6 62   98.32   -10 LegendNANA
22:00 -1.4 -4.2 81 5 68   98.36   -11 LegendNANA
23:00 -0.8 -4.0 79 5 70   98.55   -10 LegendNANA

Notes on Data Quality.

Legend

  • E = Estimated
  • M = Missing
  • NA = Not Available
  • ‡ = Partner data that is not subject to review by the National Climate Archives
Date modified: